Time,TemperatureF,DewpointF,PressureIn,WindDirection,WindDirectionDegrees,WindSpeedMPH,WindSpeedGustMPH,Humidity,HourlyPrecipIn,Conditions,Clouds,dailyrainin,SoftwareType,DateUTC
2013-08-07 00:03:00,73.9,68.8,29.78,NW,325,1.0,8.0,84,0.00,,,0.00,Wunderground v.1.15,2013-08-07 05:03:00,
2013-08-07 00:10:00,73.4,68.6,29.78,SW,222,0.0,8.0,85,0.00,,,0.00,Wunderground v.1.15,2013-08-07 05:10:00,
2013-08-07 00:15:00,73.1,68.3,29.78,SSW,209,0.0,8.0,85,0.00,,,0.00,Wunderground v.1.15,2013-08-07 05:15:00,
2013-08-07 00:22:00,73.1,68.3,29.78,WNW,291,1.0,8.0,85,0.00,,,0.00,Wunderground v.1.15,2013-08-07 05:22:00,
2013-08-07 00:27:00,72.8,68.4,29.78,West,276,1.0,8.0,86,0.00,,,0.00,Wunderground v.1.15,2013-08-07 05:27:00,
2013-08-07 00:34:00,72.7,67.9,29.78,WSW,253,1.0,8.0,85,0.00,,,0.00,Wunderground v.1.15,2013-08-07 05:34:00,
2013-08-07 00:40:00,73.0,67.9,29.79,WSW,243,1.0,8.0,84,0.00,,,0.00,Wunderground v.1.15,2013-08-07 05:40:00,
2013-08-07 00:45:00,72.9,67.8,29.77,West,259,0.0,8.0,84,0.00,,,0.00,Wunderground v.1.15,2013-08-07 05:45:00,
2013-08-07 00:51:00,72.7,67.9,29.78,WSW,250,0.0,8.0,85,0.00,,,0.00,Wunderground v.1.15,2013-08-07 05:51:00,
2013-08-07 00:58:00,72.5,67.7,29.78,West,260,1.0,8.0,85,0.00,,,0.00,Wunderground v.1.15,2013-08-07 05:58:00,
2013-08-07 01:03:00,72.4,67.6,29.78,West,266,1.0,8.0,85,0.00,,,0.00,Wunderground v.1.15,2013-08-07 06:03:00,
2013-08-07 01:10:00,72.2,67.4,29.78,WNW,284,1.0,8.0,85,0.00,,,0.00,Wunderground v.1.15,2013-08-07 06:10:00,
2013-08-07 01:15:00,72.1,67.7,29.78,WSW,243,1.0,8.0,86,0.00,,,0.00,Wunderground v.1.15,2013-08-07 06:15:00,
2013-08-07 01:22:00,72.0,67.6,29.77,WSW,258,1.0,8.0,86,0.00,,,0.00,Wunderground v.1.15,2013-08-07 06:22:00,
2013-08-07 01:28:00,71.9,67.1,29.77,West,259,1.0,8.0,85,0.00,,,0.00,Wunderground v.1.15,2013-08-07 06:28:00,
2013-08-07 01:33:00,72.0,67.2,29.77,WSW,253,1.0,8.0,85,0.00,,,0.00,Wunderground v.1.15,2013-08-07 06:33:00,
2013-08-07 01:40:00,71.7,66.9,29.77,West,267,1.0,8.0,85,0.00,,,0.00,Wunderground v.1.15,2013-08-07 06:40:00,
2013-08-07 01:46:00,71.5,66.8,29.77,WSW,253,1.0,8.0,85,0.00,,,0.00,Wunderground v.1.15,2013-08-07 06:46:00,
2013-08-07 01:51:00,71.2,66.5,29.77,WNW,288,1.0,8.0,85,0.00,,,0.00,Wunderground v.1.15,2013-08-07 06:51:00,
2013-08-07 01:58:00,71.2,66.5,29.76,WSW,245,1.0,8.0,85,0.00,,,0.00,Wunderground v.1.15,2013-08-07 06:58:00,
2013-08-07 02:04:00,71.2,66.5,29.77,WSW,242,1.0,8.0,85,0.00,,,0.00,Wunderground v.1.15,2013-08-07 07:04:00,
2013-08-07 02:09:00,71.2,66.1,29.77,WSW,253,1.0,8.0,84,0.00,,,0.00,Wunderground v.1.15,2013-08-07 07:09:00,
2013-08-07 02:16:00,71.2,66.5,29.77,WSW,240,1.0,8.0,85,0.00,,,0.00,Wunderground v.1.15,2013-08-07 07:16:00,
2013-08-07 02:22:00,71.1,66.4,29.77,SW,236,1.0,8.0,85,0.00,,,0.00,Wunderground v.1.15,2013-08-07 07:22:00,
2013-08-07 02:28:00,71.2,66.1,29.77,West,262,2.0,8.0,84,0.00,,,0.00,Wunderground v.1.15,2013-08-07 07:28:00,
2013-08-07 02:34:00,71.2,66.1,29.77,WSW,250,2.0,8.0,84,0.00,,,0.00,Wunderground v.1.15,2013-08-07 07:34:00,
2013-08-07 02:39:00,71.1,66.0,29.77,WSW,253,3.0,3.0,84,0.00,,,0.00,Wunderground v.1.15,2013-08-07 07:39:00,
2013-08-07 02:46:00,70.8,66.1,29.77,SW,233,2.0,8.0,85,0.00,,,0.00,Wunderground v.1.15,2013-08-07 07:46:00,
2013-08-07 02:52:00,70.7,66.0,29.77,SSW,211,2.0,8.0,85,0.00,,,0.00,Wunderground v.1.15,2013-08-07 07:52:00,
2013-08-07 02:57:00,70.5,65.8,29.77,SW,219,1.0,8.0,85,0.00,,,0.00,Wunderground v.1.15,2013-08-07 07:57:00,
2013-08-07 03:04:00,70.2,65.8,29.77,WSW,242,1.0,8.0,86,0.00,,,0.00,Wunderground v.1.15,2013-08-07 08:04:00,
2013-08-07 03:09:00,69.9,65.9,29.77,SW,226,2.0,8.0,87,0.00,,,0.00,Wunderground v.1.15,2013-08-07 08:09:00,
2013-08-07 03:16:00,69.7,65.7,29.77,WSW,242,2.0,8.0,87,0.00,,,0.00,Wunderground v.1.15,2013-08-07 08:16:00,
2013-08-07 03:22:00,69.5,65.8,29.77,SW,226,1.0,8.0,88,0.00,,,0.00,Wunderground v.1.15,2013-08-07 08:22:00,
2013-08-07 03:27:00,69.3,65.6,29.77,WNW,283,2.0,8.0,88,0.00,,,0.00,Wunderground v.1.15,2013-08-07 08:27:00,
2013-08-07 03:34:00,69.2,65.5,29.77,SW,214,1.0,8.0,88,0.00,,,0.00,Wunderground v.1.15,2013-08-07 08:34:00,
2013-08-07 03:39:00,69.2,65.5,29.76,WSW,252,1.0,1.0,88,0.00,,,0.00,Wunderground v.1.15,2013-08-07 08:39:00,
2013-08-07 03:46:00,69.2,65.5,29.76,SW,228,1.0,8.0,88,0.00,,,0.00,Wunderground v.1.15,2013-08-07 08:46:00,
2013-08-07 03:51:00,69.1,65.4,29.76,SW,226,0.0,8.0,88,0.00,,,0.00,Wunderground v.1.15,2013-08-07 08:51:00,
2013-08-07 03:57:00,69.2,65.5,29.76,West,266,1.0,8.0,88,0.00,,,0.00,Wunderground v.1.15,2013-08-07 08:57:00,
2013-08-07 04:04:00,69.3,65.6,29.75,WNW,302,1.0,8.0,88,0.00,,,0.00,Wunderground v.1.15,2013-08-07 09:04:00,
2013-08-07 04:09:00,69.5,65.8,29.76,West,259,1.0,8.0,88,0.00,,,0.00,Wunderground v.1.15,2013-08-07 09:09:00,
2013-08-07 04:16:00,69.6,65.9,29.77,West,266,1.0,8.0,88,0.00,,,0.00,Wunderground v.1.15,2013-08-07 09:16:00,
2013-08-07 04:21:00,69.5,65.8,29.77,West,274,1.0,8.0,88,0.00,,,0.00,Wunderground v.1.15,2013-08-07 09:21:00,
2013-08-07 04:28:00,69.3,65.6,29.77,WNW,302,1.0,8.0,88,0.00,,,0.00,Wunderground v.1.15,2013-08-07 09:28:00,
2013-08-07 04:34:00,69.2,65.8,29.77,West,278,1.0,8.0,89,0.00,,,0.00,Wunderground v.1.15,2013-08-07 09:34:00,
2013-08-07 04:39:00,69.0,65.6,29.77,West,269,1.0,8.0,89,0.00,,,0.00,Wunderground v.1.15,2013-08-07 09:39:00,
2013-08-07 04:46:00,68.9,65.8,29.77,West,273,1.0,8.0,90,0.00,,,0.00,Wunderground v.1.15,2013-08-07 09:46:00,
2013-08-07 04:52:00,68.7,65.6,29.76,WNW,284,1.0,8.0,90,0.00,,,0.00,Wunderground v.1.15,2013-08-07 09:52:00,
2013-08-07 04:57:00,68.5,65.4,29.77,West,259,0.0,8.0,90,0.00,,,0.00,Wunderground v.1.15,2013-08-07 09:57:00,
2013-08-07 05:04:00,68.4,65.7,29.76,WSW,257,1.0,8.0,91,0.00,,,0.00,Wunderground v.1.15,2013-08-07 10:04:00,
2013-08-07 05:10:00,68.3,65.6,29.76,WSW,242,1.0,8.0,91,0.00,,,0.00,Wunderground v.1.15,2013-08-07 10:10:00,
2013-08-07 05:15:00,68.3,65.6,29.77,WSW,240,1.0,8.0,91,0.00,,,0.00,Wunderground v.1.15,2013-08-07 10:15:00,
2013-08-07 05:22:00,68.2,65.8,29.77,WSW,254,0.0,8.0,92,0.00,,,0.00,Wunderground v.1.15,2013-08-07 10:22:00,
2013-08-07 05:28:00,68.0,65.6,29.76,West,276,0.0,8.0,92,0.00,,,0.00,Wunderground v.1.15,2013-08-07 10:28:00,
2013-08-07 05:33:00,67.9,65.5,29.77,SW,216,0.0,8.0,92,0.00,,,0.00,Wunderground v.1.15,2013-08-07 10:33:00,
2013-08-07 05:40:00,67.8,65.7,29.77,SW,215,0.0,8.0,93,0.00,,,0.00,Wunderground v.1.15,2013-08-07 10:40:00,
2013-08-07 05:45:00,67.7,65.6,29.77,SW,215,0.0,8.0,93,0.00,,,0.00,Wunderground v.1.15,2013-08-07 10:45:00,
2013-08-07 05:52:00,67.6,65.5,29.77,NW,308,0.0,8.0,93,0.00,,,0.00,Wunderground v.1.15,2013-08-07 10:52:00,
2013-08-07 05:58:00,67.6,65.5,29.78,West,280,0.0,8.0,93,0.00,,,0.00,Wunderground v.1.15,2013-08-07 10:58:00,
2013-08-07 06:03:00,67.6,65.5,29.78,WNW,294,0.0,8.0,93,0.00,,,0.00,Wunderground v.1.15,2013-08-07 11:03:00,
2013-08-07 06:10:00,67.4,65.6,29.78,West,271,0.0,8.0,94,0.00,,,0.00,Wunderground v.1.15,2013-08-07 11:10:00,
2013-08-07 06:15:00,67.3,65.5,29.78,West,271,0.0,8.0,94,0.00,,,0.00,Wunderground v.1.15,2013-08-07 11:15:00,
2013-08-07 06:22:00,67.2,65.4,29.78,WNW,283,0.0,8.0,94,0.00,,,0.00,Wunderground v.1.15,2013-08-07 11:22:00,
2013-08-07 06:28:00,67.2,65.4,29.79,WSW,257,0.0,8.0,94,0.00,,,0.00,Wunderground v.1.15,2013-08-07 11:28:00,
2013-08-07 06:33:00,67.2,65.7,29.79,NW,308,0.0,8.0,95,0.00,,,0.00,Wunderground v.1.15,2013-08-07 11:33:00,
2013-08-07 06:40:00,67.3,65.8,29.79,SSW,197,0.0,8.0,95,0.00,,,0.00,Wunderground v.1.15,2013-08-07 11:40:00,
2013-08-07 06:45:00,67.5,65.7,29.79,West,260,0.0,8.0,94,0.00,,,0.00,Wunderground v.1.15,2013-08-07 11:45:00,
2013-08-07 06:51:00,67.8,66.0,29.80,NNW,329,0.0,8.0,94,0.00,,,0.00,Wunderground v.1.15,2013-08-07 11:51:00,
2013-08-07 06:58:00,68.0,65.9,29.80,SE,135,0.0,8.0,93,0.00,,,0.00,Wunderground v.1.15,2013-08-07 11:58:00,
2013-08-07 07:03:00,68.3,65.9,29.80,WSW,256,0.0,8.0,92,0.00,,,0.00,Wunderground v.1.15,2013-08-07 12:03:00,
2013-08-07 07:10:00,68.4,65.7,29.81,East,84,1.0,1.0,91,0.00,,,0.00,Wunderground v.1.15,2013-08-07 12:10:00,
2013-08-07 07:15:00,68.4,65.4,29.81,NNE,13,1.0,8.0,90,0.00,,,0.00,Wunderground v.1.15,2013-08-07 12:15:00,
2013-08-07 07:21:00,68.4,65.0,29.81,West,261,0.0,8.0,89,0.00,,,0.00,Wunderground v.1.15,2013-08-07 12:21:00,
2013-08-07 07:28:00,68.4,65.4,29.81,NW,314,0.0,8.0,90,0.00,,,0.00,Wunderground v.1.15,2013-08-07 12:28:00,
2013-08-07 07:33:00,68.4,65.4,29.81,ENE,74,0.0,8.0,90,0.00,,,0.00,Wunderground v.1.15,2013-08-07 12:33:00,
2013-08-07 07:40:00,68.6,65.2,29.81,NW,315,1.0,1.0,89,0.00,,,0.00,Wunderground v.1.15,2013-08-07 12:40:00,
2013-08-07 07:46:00,69.0,65.3,29.81,NE,46,1.0,8.0,88,0.00,,,0.00,Wunderground v.1.15,2013-08-07 12:46:00,
2013-08-07 07:47:00,69.1,65.4,29.81,NNE,32,1.0,8.0,88,0.00,,,0.00,Wunderground v.1.15,2013-08-07 12:47:00,
2013-08-07 07:53:00,69.4,65.4,29.82,NW,321,1.0,8.0,87,0.00,,,0.00,Wunderground v.1.15,2013-08-07 12:53:00,
2013-08-07 08:00:00,69.5,65.1,29.82,West,273,1.0,8.0,86,0.00,,,0.00,Wunderground v.1.15,2013-08-07 13:00:00,
2013-08-07 08:05:00,69.5,64.8,29.82,NNW,333,1.0,8.0,85,0.00,,,0.00,Wunderground v.1.15,2013-08-07 13:05:00,
2013-08-07 08:12:00,69.6,64.2,29.82,NNE,29,2.0,2.0,83,0.00,,,0.00,Wunderground v.1.15,2013-08-07 13:12:00,
2013-08-07 08:17:00,69.7,64.3,29.82,NE,49,2.0,8.0,83,0.00,,,0.00,Wunderground v.1.15,2013-08-07 13:17:00,
2013-08-07 08:24:00,69.7,64.0,29.83,WSW,247,2.0,8.0,82,0.00,,,0.00,Wunderground v.1.15,2013-08-07 13:24:00,
2013-08-07 08:30:00,69.8,64.4,29.83,North,11,2.0,2.0,83,0.00,,,0.00,Wunderground v.1.15,2013-08-07 13:30:00,
2013-08-07 08:35:00,69.6,63.9,29.83,North,358,2.0,8.0,82,0.00,,,0.00,Wunderground v.1.15,2013-08-07 13:35:00,
2013-08-07 08:42:00,69.8,64.1,29.83,NNW,345,1.0,8.0,82,0.00,,,0.00,Wunderground v.1.15,2013-08-07 13:42:00,
2013-08-07 08:48:00,70.0,63.9,29.83,West,276,2.0,9.0,81,0.00,,,0.00,Wunderground v.1.15,2013-08-07 13:48:00,
2013-08-07 08:53:00,70.0,63.5,29.84,ENE,77,3.0,8.0,80,0.00,,,0.00,Wunderground v.1.15,2013-08-07 13:53:00,
2013-08-07 09:00:00,70.0,63.9,29.84,ENE,63,2.0,8.0,81,0.00,,,0.00,Wunderground v.1.15,2013-08-07 14:00:00,
2013-08-07 09:05:00,70.2,64.1,29.84,North,11,2.0,8.0,81,0.00,,,0.00,Wunderground v.1.15,2013-08-07 14:05:00,
2013-08-07 09:12:00,70.6,64.8,29.84,NW,315,2.0,3.0,82,0.00,,,0.00,Wunderground v.1.15,2013-08-07 14:12:00,
2013-08-07 09:18:00,71.0,64.9,29.84,NW,307,1.0,8.0,81,0.00,,,0.00,Wunderground v.1.15,2013-08-07 14:18:00,
2013-08-07 09:23:00,71.1,64.6,29.84,ENE,58,1.0,8.0,80,0.00,,,0.00,Wunderground v.1.15,2013-08-07 14:23:00,
2013-08-07 09:30:00,71.1,64.3,29.84,North,356,2.0,8.0,79,0.00,,,0.00,Wunderground v.1.15,2013-08-07 14:30:00,
2013-08-07 09:36:00,71.1,63.9,29.85,WNW,284,2.0,8.0,78,0.00,,,0.00,Wunderground v.1.15,2013-08-07 14:36:00,
2013-08-07 09:41:00,71.2,64.4,29.85,SW,221,2.0,8.0,79,0.00,,,0.00,Wunderground v.1.15,2013-08-07 14:41:00,
2013-08-07 09:48:00,71.6,64.4,29.85,WNW,284,2.0,8.0,78,0.00,,,0.00,Wunderground v.1.15,2013-08-07 14:48:00,
2013-08-07 09:54:00,72.0,64.8,29.86,NW,308,1.0,8.0,78,0.00,,,0.00,Wunderground v.1.15,2013-08-07 14:54:00,
2013-08-07 10:00:00,71.8,63.8,29.86,NW,307,2.0,8.0,76,0.00,,,0.00,Wunderground v.1.15,2013-08-07 15:00:00,
2013-08-07 10:06:00,71.8,64.2,29.87,WNW,295,2.0,8.0,77,0.00,,,0.00,Wunderground v.1.15,2013-08-07 15:06:00,
2013-08-07 10:11:00,72.1,64.1,29.87,NW,316,2.0,8.0,76,0.00,,,0.00,Wunderground v.1.15,2013-08-07 15:11:00,
2013-08-07 10:18:00,72.4,64.4,29.87,SW,223,2.0,8.0,76,0.00,,,0.00,Wunderground v.1.15,2013-08-07 15:18:00,
2013-08-07 10:24:00,72.5,64.5,29.87,NE,46,3.0,8.0,76,0.00,,,0.00,Wunderground v.1.15,2013-08-07 15:24:00,
2013-08-07 10:29:00,72.6,64.2,29.87,NE,53,3.0,3.0,75,0.00,,,0.00,Wunderground v.1.15,2013-08-07 15:29:00,
2013-08-07 10:36:00,72.8,64.8,29.87,NNE,22,2.0,8.0,76,0.00,,,0.00,Wunderground v.1.15,2013-08-07 15:36:00,
2013-08-07 10:41:00,73.0,64.6,29.87,ENE,65,2.0,8.0,75,0.00,,,0.00,Wunderground v.1.15,2013-08-07 15:41:00,
2013-08-07 10:48:00,73.5,65.1,29.88,NNE,22,2.0,8.0,75,0.00,,,0.00,Wunderground v.1.15,2013-08-07 15:48:00,
2013-08-07 10:54:00,73.7,65.3,29.87,ENE,63,2.0,8.0,75,0.00,,,0.00,Wunderground v.1.15,2013-08-07 15:54:00,
2013-08-07 10:59:00,73.3,64.9,29.88,North,11,2.0,8.0,75,0.00,,,0.00,Wunderground v.1.15,2013-08-07 15:59:00,
2013-08-07 11:06:00,73.7,65.7,29.88,East,84,2.0,8.0,76,0.00,,,0.00,Wunderground v.1.15,2013-08-07 16:06:00,
2013-08-07 11:12:00,73.5,65.5,29.88,ENE,75,2.0,8.0,76,0.00,,,0.00,Wunderground v.1.15,2013-08-07 16:12:00,
2013-08-07 11:17:00,73.6,65.6,29.88,North,358,3.0,8.0,76,0.00,,,0.00,Wunderground v.1.15,2013-08-07 16:17:00,
2013-08-07 11:24:00,73.8,66.1,29.89,WNW,302,2.0,8.0,77,0.00,,,0.00,Wunderground v.1.15,2013-08-07 16:24:00,
2013-08-07 11:30:00,74.0,66.0,29.89,NE,37,2.0,8.0,76,0.00,,,0.00,Wunderground v.1.15,2013-08-07 16:30:00,
2013-08-07 11:36:00,74.2,65.8,29.89,NW,315,2.0,8.0,75,0.00,,,0.00,Wunderground v.1.15,2013-08-07 16:36:00,
2013-08-07 11:42:00,74.3,65.1,29.89,SW,226,2.0,8.0,73,0.00,,,0.00,Wunderground v.1.15,2013-08-07 16:42:00,
2013-08-07 11:47:00,74.2,64.6,29.89,NE,56,2.0,8.0,72,0.00,,,0.00,Wunderground v.1.15,2013-08-07 16:47:00,
2013-08-07 11:54:00,73.5,64.3,29.89,NNW,344,3.0,8.0,73,0.00,,,0.00,Wunderground v.1.15,2013-08-07 16:54:00,
2013-08-07 11:59:00,73.3,64.1,29.89,NNW,343,4.0,4.0,73,0.00,,,0.00,Wunderground v.1.15,2013-08-07 16:59:00,
2013-08-07 12:06:00,73.3,63.7,29.90,NE,37,3.0,8.0,72,0.00,,,0.00,Wunderground v.1.15,2013-08-07 17:06:00,
2013-08-07 12:12:00,73.0,63.8,29.90,East,96,3.0,8.0,73,0.00,,,0.00,Wunderground v.1.15,2013-08-07 17:12:00,
2013-08-07 12:17:00,73.1,64.7,29.89,NW,322,3.0,8.0,75,0.00,,,0.00,Wunderground v.1.15,2013-08-07 17:17:00,
2013-08-07 12:24:00,73.1,63.9,29.89,NNE,29,3.0,8.0,73,0.00,,,0.00,Wunderground v.1.15,2013-08-07 17:24:00,
2013-08-07 12:30:00,73.1,63.9,29.90,ENE,62,4.0,4.0,73,0.00,,,0.00,Wunderground v.1.15,2013-08-07 17:30:00,
2013-08-07 12:35:00,72.9,63.7,29.90,WSW,253,4.0,8.0,73,0.00,,,0.00,Wunderground v.1.15,2013-08-07 17:35:00,
2013-08-07 12:42:00,72.8,64.0,29.90,East,92,3.0,8.0,74,0.00,,,0.00,Wunderground v.1.15,2013-08-07 17:42:00,
2013-08-07 12:47:00,73.2,63.6,29.90,ENE,63,3.0,8.0,72,0.00,,,0.00,Wunderground v.1.15,2013-08-07 17:47:00,
2013-08-07 12:54:00,72.8,63.2,29.89,NNE,32,3.0,8.0,72,0.00,,,0.00,Wunderground v.1.15,2013-08-07 17:54:00,
2013-08-07 13:00:00,73.3,63.7,29.90,NW,319,3.0,8.0,72,0.00,,,0.00,Wunderground v.1.15,2013-08-07 18:00:00,
2013-08-07 13:06:00,73.1,63.9,29.90,NNW,329,4.0,8.0,73,0.00,,,0.00,Wunderground v.1.15,2013-08-07 18:06:00,
2013-08-07 13:12:00,73.2,63.6,29.90,WNW,286,3.0,8.0,72,0.00,,,0.00,Wunderground v.1.15,2013-08-07 18:12:00,
2013-08-07 13:17:00,73.1,63.9,29.91,NNW,334,3.0,8.0,73,0.00,,,0.00,Wunderground v.1.15,2013-08-07 18:17:00,
2013-08-07 13:24:00,72.7,63.1,29.91,WNW,295,4.0,8.0,72,0.00,,,0.00,Wunderground v.1.15,2013-08-07 18:24:00,
2013-08-07 13:30:00,72.6,63.4,29.91,NNW,347,4.0,4.0,73,0.00,,,0.00,Wunderground v.1.15,2013-08-07 18:30:00,
2013-08-07 13:36:00,72.5,63.0,29.91,NW,304,3.0,8.0,72,0.00,,,0.00,Wunderground v.1.15,2013-08-07 18:36:00,
2013-08-07 13:42:00,72.9,63.7,29.91,West,269,2.0,8.0,73,0.00,,,0.00,Wunderground v.1.15,2013-08-07 18:42:00,
2013-08-07 13:47:00,73.0,63.0,29.91,West,263,2.0,8.0,71,0.00,,,0.00,Wunderground v.1.15,2013-08-07 18:47:00,
2013-08-07 13:54:00,73.8,64.2,29.91,NE,49,2.0,8.0,72,0.00,,,0.00,Wunderground v.1.15,2013-08-07 18:54:00,
2013-08-07 14:00:00,74.0,63.2,29.91,NNW,333,2.0,8.0,69,0.00,,,0.00,Wunderground v.1.15,2013-08-07 19:00:00,
2013-08-07 14:05:00,74.0,63.2,29.90,North,4,3.0,8.0,69,0.00,,,0.00,Wunderground v.1.15,2013-08-07 19:05:00,
2013-08-07 14:12:00,74.7,63.9,29.90,NNW,340,2.0,8.0,69,0.00,,,0.00,Wunderground v.1.15,2013-08-07 19:12:00,
2013-08-07 14:17:00,74.9,63.2,29.90,NW,313,3.0,8.0,67,0.00,,,0.00,Wunderground v.1.15,2013-08-07 19:17:00,
2013-08-07 14:24:00,74.8,63.5,29.90,SW,232,3.0,8.0,68,0.00,,,0.00,Wunderground v.1.15,2013-08-07 19:24:00,
2013-08-07 14:30:00,74.5,63.2,29.90,East,92,3.0,8.0,68,0.00,,,0.00,Wunderground v.1.15,2013-08-07 19:30:00,
2013-08-07 14:35:00,74.4,62.7,29.90,North,11,4.0,8.0,67,0.00,,,0.00,Wunderground v.1.15,2013-08-07 19:35:00,
2013-08-07 14:42:00,74.9,63.2,29.90,SSW,208,3.0,8.0,67,0.00,,,0.00,Wunderground v.1.15,2013-08-07 19:42:00,
2013-08-07 14:47:00,75.3,63.6,29.90,NW,326,2.0,8.0,67,0.00,,,0.00,Wunderground v.1.15,2013-08-07 19:47:00,
2013-08-07 14:54:00,75.4,63.2,29.90,West,276,3.0,8.0,66,0.00,,,0.00,Wunderground v.1.15,2013-08-07 19:54:00,
2013-08-07 15:00:00,75.7,62.7,29.90,North,349,3.0,3.0,64,0.00,,,0.00,Wunderground v.1.15,2013-08-07 20:00:00,
2013-08-07 15:05:00,75.4,61.9,29.90,ENE,58,3.0,8.0,63,0.00,,,0.00,Wunderground v.1.15,2013-08-07 20:05:00,
2013-08-07 15:12:00,75.5,62.9,29.90,NE,56,3.0,8.0,65,0.00,,,0.00,Wunderground v.1.15,2013-08-07 20:12:00,
2013-08-07 15:17:00,75.1,62.5,29.90,NW,322,2.0,8.0,65,0.00,,,0.00,Wunderground v.1.15,2013-08-07 20:17:00,
2013-08-07 15:24:00,74.9,62.8,29.90,NE,39,2.0,8.0,66,0.00,,,0.00,Wunderground v.1.15,2013-08-07 20:24:00,
2013-08-07 15:30:00,75.5,63.3,29.90,ENE,69,2.0,8.0,66,0.00,,,0.00,Wunderground v.1.15,2013-08-07 20:30:00,
2013-08-07 15:35:00,75.9,63.3,29.89,ENE,58,3.0,8.0,65,0.00,,,0.00,Wunderground v.1.15,2013-08-07 20:35:00,
2013-08-07 15:42:00,76.3,62.8,29.89,NNW,332,2.0,8.0,63,0.00,,,0.00,Wunderground v.1.15,2013-08-07 20:42:00,
2013-08-07 15:48:00,76.4,62.9,29.89,NNW,333,2.0,8.0,63,0.00,,,0.00,Wunderground v.1.15,2013-08-07 20:48:00,
2013-08-07 15:53:00,76.8,63.7,29.89,East,91,2.0,8.0,64,0.00,,,0.00,Wunderground v.1.15,2013-08-07 20:53:00,
2013-08-07 16:00:00,76.4,62.9,29.89,NW,319,2.0,8.0,63,0.00,,,0.00,Wunderground v.1.15,2013-08-07 21:00:00,
2013-08-07 16:05:00,76.7,62.2,29.89,NE,34,3.0,8.0,61,0.00,,,0.00,Wunderground v.1.15,2013-08-07 21:05:00,
2013-08-07 16:12:00,76.5,62.5,29.89,WSW,245,3.0,3.0,62,0.00,,,0.00,Wunderground v.1.15,2013-08-07 21:12:00,
2013-08-07 16:18:00,76.7,63.2,29.89,NW,305,3.0,8.0,63,0.00,,,0.00,Wunderground v.1.15,2013-08-07 21:18:00,
2013-08-07 16:23:00,77.2,62.2,29.89,NNE,14,2.0,8.0,60,0.00,,,0.00,Wunderground v.1.15,2013-08-07 21:23:00,
2013-08-07 16:30:00,76.4,62.9,29.89,NNW,332,2.0,2.0,63,0.00,,,0.00,Wunderground v.1.15,2013-08-07 21:30:00,
2013-08-07 16:36:00,76.3,62.3,29.89,NNE,32,2.0,8.0,62,0.00,,,0.00,Wunderground v.1.15,2013-08-07 21:36:00,
2013-08-07 16:42:00,76.0,62.0,29.89,North,358,3.0,8.0,62,0.00,,,0.00,Wunderground v.1.15,2013-08-07 21:42:00,
2013-08-07 16:48:00,75.8,61.8,29.89,NNE,20,2.0,8.0,62,0.00,,,0.00,Wunderground v.1.15,2013-08-07 21:48:00,
2013-08-07 16:53:00,76.3,62.3,29.89,WSW,253,2.0,8.0,62,0.00,,,0.00,Wunderground v.1.15,2013-08-07 21:53:00,
2013-08-07 17:00:00,77.3,61.9,29.90,ENE,66,2.0,8.0,59,0.00,,,0.00,Wunderground v.1.15,2013-08-07 22:00:00,
2013-08-07 17:06:00,77.2,62.2,29.90,NNE,33,2.0,8.0,60,0.00,,,0.00,Wunderground v.1.15,2013-08-07 22:06:00,
2013-08-07 17:11:00,77.2,62.2,29.90,ENE,78,2.0,8.0,60,0.00,,,0.00,Wunderground v.1.15,2013-08-07 22:11:00,
2013-08-07 17:18:00,77.4,62.4,29.90,North,6,2.0,8.0,60,0.00,,,0.00,Wunderground v.1.15,2013-08-07 22:18:00,
2013-08-07 17:24:00,77.2,62.7,29.90,NE,49,3.0,6.0,61,0.00,,,0.00,Wunderground v.1.15,2013-08-07 22:24:00,
2013-08-07 17:30:00,77.0,62.0,29.90,NE,52,3.0,8.0,60,0.00,,,0.00,Wunderground v.1.15,2013-08-07 22:30:00,
2013-08-07 17:36:00,77.2,61.3,29.90,NNE,20,3.0,8.0,58,0.00,,,0.00,Wunderground v.1.15,2013-08-07 22:36:00,
2013-08-07 17:41:00,77.3,62.3,29.91,ENE,68,2.0,8.0,60,0.00,,,0.00,Wunderground v.1.15,2013-08-07 22:41:00,
2013-08-07 17:48:00,76.9,62.0,29.90,NNE,30,3.0,8.0,60,0.00,,,0.00,Wunderground v.1.15,2013-08-07 22:48:00,
2013-08-07 17:53:00,76.9,61.5,29.91,West,269,2.0,8.0,59,0.00,,,0.00,Wunderground v.1.15,2013-08-07 22:53:00,
2013-08-07 18:00:00,76.9,61.5,29.91,NNW,345,2.0,2.0,59,0.00,,,0.00,Wunderground v.1.15,2013-08-07 23:00:00,
2013-08-07 18:06:00,76.7,61.3,29.91,ESE,106,2.0,8.0,59,0.00,,,0.00,Wunderground v.1.15,2013-08-07 23:06:00,
2013-08-07 18:12:00,76.5,61.1,29.90,WNW,287,2.0,8.0,59,0.00,,,0.00,Wunderground v.1.15,2013-08-07 23:12:00,
2013-08-07 18:18:00,76.3,61.4,29.91,ENE,63,3.0,8.0,60,0.00,,,0.00,Wunderground v.1.15,2013-08-07 23:18:00,
2013-08-07 18:23:00,76.3,61.9,29.91,NW,322,3.0,8.0,61,0.00,,,0.00,Wunderground v.1.15,2013-08-07 23:23:00,
2013-08-07 18:30:00,76.3,60.9,29.91,WSW,248,2.0,2.0,59,0.00,,,0.00,Wunderground v.1.15,2013-08-07 23:30:00,
2013-08-07 18:36:00,76.3,60.4,29.91,East,84,2.0,8.0,58,0.00,,,0.00,Wunderground v.1.15,2013-08-07 23:36:00,
2013-08-07 18:41:00,76.2,60.8,29.91,WNW,295,2.0,8.0,59,0.00,,,0.00,Wunderground v.1.15,2013-08-07 23:41:00,
2013-08-07 18:48:00,76.2,61.3,29.91,NNE,20,2.0,8.0,60,0.00,,,0.00,Wunderground v.1.15,2013-08-07 23:48:00,
2013-08-07 18:53:00,76.1,60.2,29.91,ENE,70,2.0,8.0,58,0.00,,,0.00,Wunderground v.1.15,2013-08-07 23:53:00,
2013-08-07 19:00:00,76.0,60.2,29.91,ENE,63,1.0,1.0,58,0.00,,,0.00,Wunderground v.1.15,2013-08-08 00:00:00,
2013-08-07 19:06:00,75.6,60.3,29.92,NW,322,1.0,8.0,59,0.00,,,0.00,Wunderground v.1.15,2013-08-08 00:06:00,
2013-08-07 19:11:00,75.5,60.2,29.92,NE,43,1.0,8.0,59,0.00,,,0.00,Wunderground v.1.15,2013-08-08 00:11:00,
2013-08-07 19:18:00,75.4,60.1,29.92,East,89,1.0,8.0,59,0.00,,,0.00,Wunderground v.1.15,2013-08-08 00:18:00,
2013-08-07 19:24:00,75.4,60.1,29.92,NNE,30,1.0,8.0,59,0.00,,,0.00,Wunderground v.1.15,2013-08-08 00:24:00,
2013-08-07 19:30:00,75.1,60.3,29.92,NE,34,1.0,1.0,60,0.00,,,0.00,Wunderground v.1.15,2013-08-08 00:30:00,
2013-08-07 19:36:00,74.7,60.4,29.93,North,8,1.0,8.0,61,0.00,,,0.00,Wunderground v.1.15,2013-08-08 00:36:00,
2013-08-07 19:41:00,74.3,60.4,29.92,NE,51,1.0,8.0,62,0.00,,,0.00,Wunderground v.1.15,2013-08-08 00:41:00,
2013-08-07 19:48:00,73.9,60.5,29.92,NE,44,0.0,8.0,63,0.00,,,0.00,Wunderground v.1.15,2013-08-08 00:48:00,
2013-08-07 19:53:00,73.5,60.6,29.93,ENE,63,0.0,8.0,64,0.00,,,0.00,Wunderground v.1.15,2013-08-08 00:53:00,
2013-08-07 19:59:00,73.1,60.6,29.93,ENE,63,0.0,8.0,65,0.00,,,0.00,Wunderground v.1.15,2013-08-08 00:59:00,
2013-08-07 20:06:00,72.7,60.7,29.93,ENE,63,0.0,8.0,66,0.00,,,0.00,Wunderground v.1.15,2013-08-08 01:06:00,
2013-08-07 20:11:00,72.3,60.7,29.93,ENE,63,0.0,8.0,67,0.00,,,0.00,Wunderground v.1.15,2013-08-08 01:11:00,
2013-08-07 20:18:00,72.0,60.9,29.93,ENE,63,0.0,8.0,68,0.00,,,0.00,Wunderground v.1.15,2013-08-08 01:18:00,
2013-08-07 20:23:00,71.5,60.8,29.93,ENE,63,0.0,8.0,69,0.00,,,0.00,Wunderground v.1.15,2013-08-08 01:23:00,
2013-08-07 20:29:00,71.3,61.0,29.94,ENE,65,0.0,8.0,70,0.00,,,0.00,Wunderground v.1.15,2013-08-08 01:29:00,
2013-08-07 20:36:00,70.9,61.0,29.94,ENE,65,0.0,8.0,71,0.00,,,0.00,Wunderground v.1.15,2013-08-08 01:36:00,
2013-08-07 20:41:00,70.5,61.0,29.94,ENE,65,0.0,8.0,72,0.00,,,0.00,Wunderground v.1.15,2013-08-08 01:41:00,
2013-08-07 20:48:00,70.3,60.8,29.94,ENE,66,0.0,8.0,72,0.00,,,0.00,Wunderground v.1.15,2013-08-08 01:48:00,
2013-08-07 20:53:00,70.1,61.0,29.95,ENE,65,0.0,8.0,73,0.00,,,0.00,Wunderground v.1.15,2013-08-08 01:53:00,
2013-08-07 21:00:00,69.9,61.2,29.95,ENE,65,0.0,8.0,74,0.00,,,0.00,Wunderground v.1.15,2013-08-08 02:00:00,
2013-08-07 21:06:00,69.5,60.8,29.95,ENE,65,0.0,8.0,74,0.00,,,0.00,Wunderground v.1.15,2013-08-08 02:06:00,
2013-08-07 21:11:00,69.2,60.9,29.95,ENE,65,0.0,8.0,75,0.00,,,0.00,Wunderground v.1.15,2013-08-08 02:11:00,
2013-08-07 21:18:00,69.0,61.1,29.95,ENE,65,0.0,8.0,76,0.00,,,0.00,Wunderground v.1.15,2013-08-08 02:18:00,
2013-08-07 21:23:00,69.0,61.1,29.95,ENE,65,0.0,8.0,76,0.00,,,0.00,Wunderground v.1.15,2013-08-08 02:23:00,
2013-08-07 21:30:00,68.8,60.9,29.96,ENE,65,0.0,8.0,76,0.00,,,0.00,Wunderground v.1.15,2013-08-08 02:30:00,
2013-08-07 21:35:00,68.7,60.8,29.96,ENE,65,0.0,8.0,76,0.00,,,0.00,Wunderground v.1.15,2013-08-08 02:35:00,
2013-08-07 21:41:00,68.6,60.4,29.96,ENE,65,0.0,8.0,75,0.00,,,0.00,Wunderground v.1.15,2013-08-08 02:41:00,
2013-08-07 21:48:00,68.5,60.6,29.96,ENE,65,0.0,8.0,76,0.00,,,0.00,Wunderground v.1.15,2013-08-08 02:48:00,
2013-08-07 21:53:00,68.3,60.4,29.96,ENE,65,0.0,8.0,76,0.00,,,0.00,Wunderground v.1.15,2013-08-08 02:53:00,
2013-08-07 22:00:00,68.1,60.2,29.97,ENE,65,0.0,8.0,76,0.00,,,0.00,Wunderground v.1.15,2013-08-08 03:00:00,
2013-08-07 22:08:00,67.8,60.3,29.97,ENE,65,0.0,8.0,77,0.00,,,0.00,Wunderground v.1.15,2013-08-08 03:08:00,
2013-08-07 22:13:00,67.9,60.1,29.97,NE,53,0.0,8.0,76,0.00,,,0.00,Wunderground v.1.15,2013-08-08 03:13:00,
2013-08-07 22:20:00,67.9,59.3,29.97,NE,51,0.0,8.0,74,0.00,,,0.00,Wunderground v.1.15,2013-08-08 03:20:00,
2013-08-07 22:25:00,67.8,59.2,29.97,NE,51,0.0,8.0,74,0.00,,,0.00,Wunderground v.1.15,2013-08-08 03:25:00,
2013-08-07 22:32:00,67.9,58.9,29.98,NE,56,0.0,8.0,73,0.00,,,0.00,Wunderground v.1.15,2013-08-08 03:32:00,
2013-08-07 22:37:00,67.9,58.5,29.98,East,81,0.0,8.0,72,0.00,,,0.00,Wunderground v.1.15,2013-08-08 03:37:00,
2013-08-07 22:43:00,67.8,58.8,29.98,NE,40,0.0,8.0,73,0.00,,,0.00,Wunderground v.1.15,2013-08-08 03:43:00,
2013-08-07 22:50:00,67.7,58.7,29.98,NW,321,0.0,8.0,73,0.00,,,0.00,Wunderground v.1.15,2013-08-08 03:50:00,
2013-08-07 22:55:00,67.6,58.6,29.98,NE,37,0.0,8.0,73,0.00,,,0.00,Wunderground v.1.15,2013-08-08 03:55:00,
2013-08-07 23:01:00,67.5,58.5,29.98,North,4,0.0,8.0,73,0.00,,,0.00,Wunderground v.1.15,2013-08-08 04:01:00,
2013-08-07 23:08:00,67.3,58.3,29.98,ENE,61,0.0,8.0,73,0.00,,,0.00,Wunderground v.1.15,2013-08-08 04:08:00,
2013-08-07 23:10:00,67.2,58.2,29.98,NNE,16,0.0,8.0,73,0.00,,,0.00,Wunderground v.1.15,2013-08-08 04:10:00,
2013-08-07 23:14:00,67.2,58.2,29.98,NE,56,0.0,8.0,73,0.00,,,0.00,Wunderground v.1.15,2013-08-08 04:14:00,
2013-08-07 23:15:00,67.2,58.2,29.98,ENE,57,0.0,8.0,73,0.00,,,0.00,Wunderground v.1.15,2013-08-08 04:15:00,
2013-08-07 23:22:00,66.9,58.0,29.98,NE,44,0.0,8.0,73,0.00,,,0.00,Wunderground v.1.15,2013-08-08 04:22:00,
2013-08-07 23:28:00,66.6,58.1,29.99,North,351,0.0,8.0,74,0.00,,,0.00,Wunderground v.1.15,2013-08-08 04:28:00,
2013-08-07 23:33:00,66.4,58.2,29.99,East,85,0.0,8.0,75,0.00,,,0.00,Wunderground v.1.15,2013-08-08 04:33:00,
2013-08-07 23:40:00,66.1,57.9,29.99,East,85,0.0,8.0,75,0.00,,,0.00,Wunderground v.1.15,2013-08-08 04:40:00,
2013-08-07 23:45:00,65.7,57.9,29.99,East,85,0.0,8.0,76,0.00,,,0.00,Wunderground v.1.15,2013-08-08 04:45:00,
2013-08-07 23:52:00,65.6,57.8,29.99,ENE,68,0.0,8.0,76,0.00,,,0.00,Wunderground v.1.15,2013-08-08 04:52:00,
2013-08-07 23:57:00,65.5,57.7,29.99,ENE,68,0.0,8.0,76,0.00,,,0.00,Wunderground v.1.15,2013-08-08 04:57:00,